Princeton, British Columbia

5:08 AM PDT on September 26, 2017 (GMT -0700)
Princeton

Weather History for CWPR - October, 2013

Change the Weather History Date:

Sunday, October 20, 2013

  Actual Average (CYDC) Record (CYDC)
Temperature  
Mean Temperature 47 °F -  
Max Temperature 65 °F 50 °F 70 °F (2014)
Min Temperature 29 °F 30 °F 21 °F (1997)
Degree Days  
Heating Degree Days 18    
Moisture  
Dew Point 38 °F    
Average Humidity 86    
Maximum Humidity 100    
Minimum Humidity 44    
Precipitation  
Precipitation 0.00 in - - ()
Sea Level Pressure  
Sea Level Pressure 30.24 in    
Wind  
Wind Speed 1 mph ()    
Max Wind Speed 5 mph    
Max Gust Speed -    
Averages and records for this station are not official NWS values.
T = Trace of Precipitation, MM = Missing Value Source: Averaged Metar Reports

Daily Weather History Graph

Daily Weather History Graph

Search for Another Location

Airport or City:

Trip Planner

Search our weather history database for the weather conditions in past years. The results will help you decide how hot, cold, wet, or windy it might be!

Date:

Astronomy

Oct. 20, 2013 Rise Set
Actual Time 7:31 AM PDT 6:00 PM PDT
Civil Twilight 6:59 AM PDT 6:33 PM PDT
Nautical Twilight 6:21 AM PDT 7:10 PM PDT
Astronomical Twilight 5:44 AM PDT 7:47 PM PDT
Moon 7:01 PM PDT (10/20) 9:24 AM PDT (10/20)
Length of Visible Light 11h 34m
Length of Day
10h 29m
Waning Gibbous, 97% of the Moon is Illuminated
Oct 20
Waning Gibbous
Oct 26
Last Quarter
Nov 3
New
Nov 9
First Quarter
Nov 17
Full

Hourly Weather History & Observations

Time (PDT) Temp. Windchill Dew Point Humidity Pressure Visibility Wind Dir Wind Speed Gust Speed Precip Events Conditions
12:00 AM 36.0 °F - 36.0 °F 100% 30.25 in - NW 1.2 mph - N/A   Unknown
1:00 AM 34.9 °F - 34.9 °F 100% 30.25 in - Calm Calm - N/A   Unknown
2:00 AM 33.3 °F - 33.3 °F 100% 30.27 in - Calm Calm - N/A   Unknown
3:00 AM 33.1 °F - 33.1 °F 100% 30.26 in - NW 1.2 mph - N/A   Unknown
4:00 AM 31.6 °F - 31.6 °F 100% 30.26 in - Calm Calm - N/A   Unknown
5:00 AM 31 °F - 31 °F 100% 30.27 in - Calm Calm - -  
5:00 AM 30.9 °F - 30.9 °F 100% 30.27 in - Calm Calm - N/A   Unknown
6:00 AM 31.6 °F - 31.6 °F 100% 30.29 in - Calm Calm - N/A   Unknown
7:00 AM 30.4 °F - 30.4 °F 100% 30.30 in - Calm Calm - N/A   Unknown
8:00 AM 30.2 °F - 30.2 °F 100% 30.31 in - North 1.2 mph - N/A   Unknown
9:00 AM 30.9 °F - 30.9 °F 100% 30.32 in - Calm Calm - N/A   Unknown
10:00 AM 34.5 °F - 34.5 °F 100% 30.31 in - WNW 1.2 mph - N/A   Unknown
11:00 AM 40 °F - 40 °F 100% 30.29 in - South 1.2 mph - -  
11:00 AM 40.5 °F - 40.5 °F 100% 30.29 in - South 1.2 mph - N/A   Unknown
12:00 PM 48.0 °F - 39.2 °F 72% 30.26 in - West 2.3 mph - N/A   Unknown
1:00 PM 53.6 °F - 40.1 °F 60% 30.22 in - West 2.3 mph - N/A   Unknown
2:00 PM 57.6 °F - 40.6 °F 53% 30.19 in - SE 2.3 mph - N/A   Unknown
3:00 PM 61.9 °F - 41.9 °F 48% 30.17 in - ESE 1.2 mph - N/A   Unknown
4:00 PM 64.4 °F - 43.2 °F 46% 30.15 in - South 1.2 mph - N/A   Unknown
5:00 PM 62 °F - 46 °F 44% 30.14 in - NNW 3.5 mph - -  
5:00 PM 62.1 °F - 45.5 °F 55% 30.14 in - NNW 3.5 mph - N/A   Unknown
6:00 PM 54.1 °F - 45.0 °F 71% 30.17 in - NNW 4.6 mph - N/A   Unknown
7:00 PM 52.9 °F - 44.4 °F 73% 30.18 in - Calm Calm - N/A   Unknown
8:00 PM 46.4 °F - 42.8 °F 87% 30.21 in - North 2.3 mph - N/A   Unknown
9:00 PM 43.5 °F - 41.0 °F 91% 30.24 in - NE 1.2 mph - N/A   Unknown
10:00 PM 41.9 °F 40.0 °F 40.5 °F 95% 30.25 in - NNW 3.5 mph - N/A   Unknown
11:00 PM 40 °F - 40 °F 100% 30.25 in - Calm Calm - -  
11:00 PM 40.3 °F - 39.9 °F 99% 30.25 in - Calm Calm - N/A   Unknown